sat.trackr.live / text

‹ back to catalog

STARLINK-32459

NORAD 61715 · 2024-196J

PAYLOAD ACTIVE UNKNOWN

§ Identity

Operator
Country
US
Launch date
2024-10-30
Launch site
AFETR
Launch vehicle
Mass (kg)
RCS (m²)

Purposes: comms

External: N2YO · Heavens-Above · Gunter

§ Orbital elements

Epoch: 2026-09-21T07:07:51.449664Z

Period
93.85 min
Inclination
53.1601°
Eccentricity
0.0001107
Mean motion
15.34394887 rev/d
Perigee alt
462.0 km
Apogee alt
463.5 km
Semi-major
6,840.9 km
B*
4.5756e-5
RAAN
270.0181°
Arg perigee
83.4882°
Mean anomaly
276.6247°
Rev number
10,714

§ Raw data

STARLINK-324591 61715U 24196J   26264.29712326  .00001170  00000+0  45756-4 0  99932 61715  53.1601 270.0181 0001107  83.4882 276.6247 15.34394887107148

JSON: /api/v1/satellites/61715 · /tle

For live sub-satellite position, see the globe view (requires WebGL).

§ Visibility from observer

Set your observer location to see the next 7 days of passes ≥ 10°. The values pass through the URL so the page stays shareable.

No JS? Fill the form by hand. The geolocation button needs JavaScript.